Regional Weather Roundup
Issued by NWS

Home | Current Version | Previous Version | Graphics & Text | Print | Product List | Glossary On
Versions: 1 2 3 4 5 6 7 8 9 10 11 12 13 14 15 16 17 18 19 20 21 22 23 24 25 26 27 28 29 30 31 32 33 34 35 36 37 38 39 40 41 42 43 44 45 46 47 48 49 50
170
ASUS43 KDMX 262106
RWRIA

WEATHER ROUNDUP FOR IOWA
NATIONAL WEATHER SERVICE DES MOINES IA
300 PM CST SUN FEB 26 2017

NOTE: "FAIR" INDICATES FEW OR NO CLOUDS BELOW 12,000 FEET WITH NO
SIGNIFICANT WEATHER AND/OR OBSTRUCTIONS TO VISIBILITY.

* - THESE STATIONS ARE NOT NWS STATIONS...THUS NOT UNDER NWS
QUALITY CONTROL.  THEY ALSO DO NOT REPORT WEATHER SUCH
AS PRECIPITATION OR FOG.

IAZ001>003-012>014-020>022-031>034-043>046-262200-
   NORTHWEST IOWA

CITY           SKY/WX    TMP DP  RH WIND       PRES   REMARKS
CARROLL *      SUNNY     36  27  69 SW12      29.92S WCI  27
CHEROKEE *     SUNNY     32  25  74 SW9       29.91S WCI  25
DENISON *      SUNNY     36  21  55 SW8       29.90F WCI  29
LE MARS *      MOSUNNY   36  25  64 SW9       29.91F WCI  29
SHELDON *      SUNNY     34  32  93 W10       29.87S WCI  26
SIOUX CITY     SUNNY     37  24  59 CALM      29.92F
SPENCER        SUNNY     33  26  75 SW14      29.88S WCI  23
STORM LAKE *   SUNNY     30  23  74 SW14      29.90S WCI  20
$$

IAZ055>058-069>071-079>083-090>094-262200-
   SOUTHWEST IOWA

CITY           SKY/WX    TMP DP  RH WIND       PRES   REMARKS
ATLANTIC *     SUNNY     41  23  48 W8        29.93S
AUDUBON *      SUNNY     39  27  60 W5        29.93S
CLARINDA *     SUNNY     50  19  29 W15G22    29.94S
COUNCIL BLFS * SUNNY     41  21  45 CALM      29.93R
CRESTON *      SUNNY     48  21  34 W16G24    29.92S
HARLAN  *      SUNNY     36  27  69 W6        29.96S WCI  31
LAMONI         CLOUDY    48  28  46 W14       29.91S
RED OAK *      SUNNY     46  23  39 W8G15     29.93S
SHENANDOAH *   SUNNY     48  23  37 NW12G20   29.92F
$$

IAZ047>049-059>061-072>074-084-262200-
   CENTRAL IOWA

CITY           SKY/WX    TMP DP  RH WIND       PRES   REMARKS
AMES           SUNNY     38  29  70 W12       29.92S WCI  30
ANKENY *       SUNNY     45  21  39 W13G18    29.93S
BOONE *        SUNNY     36  25  64 W12G17    29.92R WCI  27
CHARITON *     MOSUNNY   50  23  34 W17       29.91S
DES MOINES     MOSUNNY   46  19  34 W18G29    29.92S
GRINNELL*      SUNNY     46  23  40 W22G31    29.91S
KNOXVILLE *    MOSUNNY   50  21  32 W24       29.90R
MARSHALLTOWN   SUNNY     41  26  55 W20       29.91R
NEWTON *       SUNNY     45  25  45 W14G24    29.90S
PELLA *        SUNNY     49  22  33 W14       29.92S
PERRY *          N/A     38  26  63 W14       29.93S WCI  29
$$

IAZ004>006-015-016-023>025-035-036-262200-
   NORTH CENTRAL IOWA

CITY           SKY/WX    TMP DP  RH WIND       PRES   REMARKS
ALGONA *       SUNNY     32  27  80 SW9       29.89S WCI  24
CLARION *      SUNNY     30  25  80 W10       29.91S WCI  21
ESTHERVILLE    SUNNY     32  27  81 SW10      29.87R WCI  24
FORT DODGE *   SUNNY     34  21  60 W7        29.92S WCI  28
MASON CITY     SUNNY     30  22  72 SW12      29.90R WCI  20
FOREST CITY *    N/A     34  23  64 SW8       29.89R WCI  27
WEBSTER CITY * SUNNY     32  23  69 W12       29.89S WCI  23
IOWA FALLS *     N/A     35  26  71 W13       29.91S WCI  26
$$

IAZ007>011-017>019-026>030-037>042-050>054-066-262200-
   NORTHEAST IOWA

CITY           SKY/WX    TMP DP  RH WIND       PRES   REMARKS
CEDAR RAPIDS   MOSUNNY   48  25  40 W22       29.88F
CHARLES CITY * SUNNY     32  25  74 W12       29.90R WCI  23
CLINTON *      MOSUNNY   48  26  42 W25       29.91S
DECORAH *      SUNNY     36  25  64 W14G21    29.86R WCI  27
DUBUQUE        SUNNY     42  27  55 W23G31    29.88R
MONTICELLO *   SUNNY     46  27  46 W16G24    29.89S
OELWEIN *      SUNNY     39  27  60 W17G24    29.89R WCI  30
WATERLOO       SUNNY     40  26  57 W16       29.90R WCI  31
$$

IAZ064-065-067-068-078-262200-
   EAST CENTRAL IOWA

CITY           SKY/WX    TMP DP  RH WIND       PRES   REMARKS
DAVENPORT      PTSUNNY   47  26  44 W16       29.92S
IOWA CITY      MOSUNNY   51  22  31 W18       29.92S
MUSCATINE *    PTSUNNY   48  25  40 W16G25    29.93S
QUAD CITIES    CLOUDY    49  23  36 W12       29.92S
$$

IAZ062-063-075>077-085>089-095>099-262200-
   SOUTHEAST IOWA

CITY           SKY/WX    TMP DP  RH WIND       PRES   REMARKS
BURLINGTON     PTSUNNY   53  27  36 SW20G26   29.93F
FAIRFIELD *    PTSUNNY   50  25  37 SW16G23   29.92S
KEOKUK *       CLOUDY    50  28  43 SW21G28   29.95S
CENTERVILLE *  PTSUNNY   48  25  40 SW14      29.93F
OTTUMWA        LGT RAIN  47  27  45 SW13      29.92R
WASHINGTON *   LGT RAIN  45  30  57 W17G41    29.93S
$$

ABBREVIATIONS USED IN REMARKS
   TC - TEMPERATURES IN CELSIUS
  WCI - WIND CHILL INDEX
   HX - HEAT INDEX
  VSB - VISIBILITY
$$





USA.gov is the U.S. government's official web portal to all federal, state and local government web resources and services.